Regional Weather Roundup
Issued by NWS Green Bay, WI

Home | Current Version | Previous Version | Text Only | Print | Product List | Glossary On
Versions: 1 2 3 4 5 6 7 8 9 10 11 12 13 14 15 16 17 18 19 20 21 22 23 24 25 26 27 28 29 30 31 32 33 34 35 36 37 38 39 40 41 42 43 44 45 46 47 48 49 50
000
ASUS43 KGRB 292300
RWRGRB

NORTH-CENTRAL AND NORTHEAST WISCONSIN REGIONAL WEATHER ROUNDUP
NATIONAL WEATHER SERVICE GREEN BAY WI
600 PM CDT FRI APR 29 2016

WIZ005-009-010>012-018-019-300000-
NORTH CENTRAL WISCONSIN

CITY           SKY/WX    TMP DP  RH WIND       PRES   REMARKS
IRONWOOD         N/A     46  30  53 NE7       30.14S
MANITOWISH WTR NOT AVBL
ARBOR VITAE    NOT AVBL
EAGLE RIVER    NOT AVBL
LAND O LAKES   NOT AVBL
RHINELANDER    SUNNY     55  29  36 N5        30.11F
PHILLIPS       CLOUDY    56  34  43 SE7       30.09S
ANTIGO         NOT AVBL
TOMAHAWK       NOT AVBL
MERRILL        CLOUDY    55  34  44 CALM      30.12R
$$

WIZ013-073-300000-
NORTHEAST WISCONSIN

CITY           SKY/WX    TMP DP  RH WIND       PRES   REMARKS
IRON MOUNTAIN  CLOUDY    58  23  26 CALM      30.10R
MARINETTE      SUNNY     54  25  32 E5        30.14S
$$

WIZ017-030-035>037-045-300000-
CENTRAL WISCONSIN

CITY           SKY/WX    TMP DP  RH WIND       PRES   REMARKS
MEDFORD        NOT AVBL
WAUSAU         MOSUNNY   57  32  38 SE5       30.10R
MOSINEE        PTSUNNY   54  34  47 E6        30.13R
MARSHFIELD     MOSUNNY   55  35  47 CALM      30.11R
WISC RAPIDS    MOSUNNY   57  33  40 E7        30.12S
STEVENS POINT  NOT AVBL
WAUPACA        SUNNY     57  31  37 E8        30.13S
SHAWANO        CLOUDY    56  32  40 E7        30.14S
CLINTONVILLE   NOT AVBL
WAUTOMA        SUNNY     56  34  43 E8        30.12R
$$

WIZ038-039-048-051-300000-
FOX VALLEY

CITY           SKY/WX    TMP DP  RH WIND       PRES   REMARKS
NWS GREEN BAY  SUNNY     55  33  43 NE9       30.14R
APPLETON       NOT AVBL
OSHKOSH        SUNNY     54  32  43 NE7       30.13R
FOND DU LAC    SUNNY     55  33  43 NE9       30.13R
$$

WIZ022-050-052-300000-
EAST CENTRAL WISCONSIN

CITY           SKY/WX    TMP DP  RH WIND       PRES   REMARKS
EPHRAIM        NOT AVBL
STURGEON BAY   SUNNY     52  28  40 N5        30.17R
MANITOWOC      NOT AVBL
SHEBOYGAN      SUNNY     50  30  46 E9        30.15R
$$

LMZ563-521-522-541>543-300000-
LAKESHORE

STATION/POSITION TIME  TEMP    WIND        PRES    VSBY  WAVE
                       AIR SEA DIR/SP/G                  HT/PER
                 (UTC) (F)     (DEG/KT/KT) (MB)    (MI)  (FT/S)
SHEBOYGAN LKSHOR 2200   41      30/  5/  6 1021.4R
KEWAUNEE LKSHORE 2200   45                 1019.8R
ALGOMA MARINA    2200           80/ 14/ 15   N/A
NORTHPORT PIER   2200   49     150/  3/  3 1020.3R
N MID LAKE BUOY  2150   40 39  340/  4/  6 1019.9F         0
CHAMBERS ISLAND  2240   51     360/  1/  2 1021.0R
MENOMINEE LKSHOR 2200   45                 1019.6R
$$



USA.gov is the U.S. government's official web portal to all federal, state and local government web resources and services.